Location: Northcutt
(34.7304°N, 84.4305°W)
Time: 16:48:29
(UTC+00:00)

SR - Pass Details

Date: 09 October 2022
Orbit: 577 x 874 km, 66.7° (Epoch: 05 December)

Event Time Altitude Azimuth Distance (km) Brightness Sun altitude
Rises 10:19:20 0° 331° (NNW) 3,249 ? -17.1°
Reaches altitude 10° 10:21:51 10° 330° (NNW) 2,271 ? -16.6°
Maximum altitude 10:26:59 74° 246° (WSW) 731 ? -15.5°
Drops below altitude 10° 10:31:39 10° 162° (SSE) 2,063 ? -14.6°
Sets 10:33:51 0° 160° (SSE) 2,929 ? -14.1°
